Home   Weather   Palermo   Past weeks

Flag for Italy Past Weather in Palermo, Italy — Yesterday and Last 2 Weeks

Now
59 °F

Clear.


Feels Like: 57 °F
Forecast: 48 / 66 °F
Wind: 10 mph from Southwest

Location: Palermo / Punta Raisi

Current Time: Apr 23, 2017 at 11:55:23 pm

Latest Report: Apr 23, 2017 at 11:20 pm


Visibility: 10 mi

Pressure: 30.15 "Hg

Humidity: 63%

Dew Point: 46 °F

Location of PalermoLocation

Past Weather in Palermo — Graph

°F

Palermo Temperature Yesterday

Maximum temperature yesterday: 61 °F (at 2:20 pm)
Minimum temperature yesterday: 55 °F (at 12:20 am)
Average temperature yesterday: 58 °F

High & Low Weather Summary for the Past Weeks

 TemperatureHumidityPressure
High73 °F (Apr 15, 11:20 am)94% (Apr 13, 6:50 am)30.33 "Hg (Apr 13, 6:50 am)
Low48 °F (Apr 23, 8:20 am)31% (Apr 15, 9:20 am)29.83 "Hg (Apr 18, 5:50 pm)
Average60 °F69%30.08 "Hg
* Reported Apr 8 10:20 pm — Apr 23 10:20 pm, Palermo, Weather by CustomWeather, © 2017

Note: Actual official high and low records may vary slightly from our data, if they occured in-between our weather recording intervals... More about our weather records

Advertising

Palermo Weather History for the Previous 24 Hours

Scroll right to see more
 ConditionsComfort  
Time TempWeatherWind HumidityBarometerVisibility
10:20 pm
Sun, Apr 23
57 °FClear.8 mph67%30.15 "Hg10 mi
9:50 pm57 °FClear.8 mph67%30.15 "Hg10 mi
9:20 pm59 °FClear.5 mph63%30.15 "Hg10 mi
8:50 pm59 °FClear.9 mph63%30.12 "Hg10 mi
8:20 pm61 °FClear.12 mph59%30.12 "Hg10 mi
7:50 pm61 °FClear.13 mph59%30.12 "Hg10 mi
7:20 pm61 °FSunny.16 mph63%30.12 "Hg10 mi
6:50 pm63 °FSunny.16 mph59%30.12 "Hg10 mi
6:20 pm63 °FSunny.14 mph59%30.12 "Hg10 mi
5:50 pm63 °FSunny.13 mph59%30.12 "Hg10 mi
5:20 pm63 °FSunny.10 mph64%30.15 "Hg10 mi
4:50 pm63 °FSunny.8 mph64%30.15 "Hg10 mi
4:20 pm63 °FSunny.7 mph59%30.15 "Hg10 mi
3:50 pm63 °FSunny.7 mph64%30.15 "Hg10 mi
3:20 pm63 °FSunny.6 mph59%30.15 "Hg10 mi
2:50 pm63 °FSunny.6 mph56%30.15 "Hg10 mi
2:20 pm63 °FSunny.8 mph56%30.18 "Hg10 mi
1:50 pm63 °FSunny.8 mph52%30.18 "Hg10 mi
1:20 pm63 °FSunny.6 mph42%30.18 "Hg10 mi
12:50 pm63 °FSunny.6 mph42%30.18 "Hg10 mi
12:20 pm63 °FSunny.5 mph34%30.18 "Hg10 mi
11:50 am63 °FSunny.6 mph49%30.18 "Hg10 mi
11:20 am61 °FSunny.7 mph48%30.18 "Hg10 mi
10:50 am61 °FSunny.8 mph52%30.18 "Hg10 mi
10:20 am59 °FSunny.8 mph59%30.18 "Hg10 mi
9:50 am59 °FSunny.9 mph59%30.18 "Hg10 mi
8:50 am59 °FSunny.2 mph51%30.18 "Hg10 mi
8:20 am48 °FCool.6 mph58%30.04 "HgN/A
7:50 am55 °FSunny.7 mph63%30.18 "Hg10 mi
7:20 am52 °FSunny.8 mph72%30.18 "Hg10 mi
6:50 am52 °FSunny.10 mph72%30.18 "Hg10 mi
6:20 am50 °FClear.8 mph71%30.15 "Hg10 mi
5:50 am50 °FClear.9 mph71%30.15 "Hg10 mi
5:20 am50 °FClear.9 mph71%30.15 "Hg10 mi
4:50 am52 °FClear.9 mph72%30.15 "Hg10 mi
4:20 am52 °FClear.9 mph47%30.18 "Hg10 mi
3:50 am52 °FClear.9 mph72%30.18 "Hg10 mi
3:20 am52 °FClear.8 mph72%30.18 "Hg10 mi
2:50 am52 °FPassing clouds.9 mph72%30.18 "HgN/A
2:20 am52 °FPassing clouds.9 mph77%30.18 "HgN/A
1:50 am54 °FPassing clouds.8 mph72%30.21 "HgN/A
1:20 am54 °FPassing clouds.8 mph72%30.21 "HgN/A
12:50 am55 °FPassing clouds.7 mph67%30.21 "HgN/A
12:20 am59 °FPassing clouds.8 mph63%30.21 "HgN/A
11:50 pm
Sat, Apr 22
59 °FPassing clouds.7 mph63%30.21 "HgN/A
11:20 pm59 °FPassing clouds.8 mph59%30.21 "HgN/A
Weather by CustomWeather, © 2017

See weather overviewHow to use our weather pages